Total_Precipitation_Accumulation
0.56 0.53 0.56 0.62 0.64 0.68 0.69 0.70 0.68 0.74 0.77 0.81 0.96 1.20 1.48 1.59 1.68 1.59 1.39 1.34 1.47 1.77 2.02 1.96 2.02 2.08 2.02 2.00 2.00 2.26 2.22 1.96 1.78 1.88 1.74 1.57 1.45 1.63 1.71 1.65 1.74 1.80 1.89
0.46 0.43 0.46 0.50 0.53 0.55 0.61 0.65 0.65 0.71 0.73 0.78 0.96 1.14 1.31 1.32 1.47 1.58 1.55 1.47 1.46 1.64 1.81 2.08 2.22 2.18 2.32 2.42 2.39 2.77 2.93 2.44 2.01 2.16 2.44 2.18 1.99 1.80 1.67 1.72 1.79 1.94 2.15
0.47 0.45 0.43 0.46 0.47 0.47 0.47 0.50 0.53 0.61 0.71 0.83 1.05 1.29 1.53 1.61 1.63 1.53 1.60 1.61 1.51 1.58 1.73 1.88 2.02 2.06 2.21 2.40 2.52 2.84 3.40 3.17 2.50 2.32 2.78 2.59 2.40 2.27 1.93 1.75 1.76 1.85 2.12
0.46 0.54 0.50 0.49 0.46 0.45 0.44 0.47 0.54 0.68 0.88 1.06 1.28 1.52 1.72 1.78 1.65 1.64 1.66 1.55 1.46 1.45 1.59 1.72 1.83 1.96 2.01 2.20 2.29 2.43 3.02 3.45 3.10 2.80 2.50 2.20 2.18 2.39 2.39 2.01 1.81 1.80 1.93
0.43 0.47 0.48 0.51 0.52 0.53 0.59 0.61 0.76 0.98 1.22 1.43 1.69 1.98 1.95 1.83 1.74 1.68 1.64 1.59 1.57 1.53 1.54 1.72 1.77 1.78 1.87 2.02 2.36 2.63 2.93 3.19 3.22 3.20 2.98 2.67 2.39 2.06 2.35 2.43 2.09 1.94 1.90
0.44 0.54 0.62 0.71 0.79 0.83 0.99 1.18 1.38 1.52 1.61 1.73 1.88 2.00 1.96 1.96 1.91 1.71 1.61 1.59 1.64 1.69 1.69 1.74 1.77 1.75 1.79 1.92 2.18 2.50 2.73 3.05 3.30 3.27 3.06 2.93 2.81 2.54 2.48 2.37 2.21 2.23 2.08
0.49 0.65 0.83 0.97 1.11 1.27 1.43 1.56 1.71 1.84 1.78 1.75 1.81 1.85 1.83 1.80 1.80 1.73 1.65 1.58 1.58 1.62 1.65 1.72 1.83 1.90 1.96 2.09 2.27 2.45 2.40 2.59 3.02 3.06 2.92 2.86 2.70 2.63 2.70 2.64 2.33 2.19 1.93
0.67 0.79 0.88 1.01 1.19 1.38 1.47 1.47 1.55 1.67 1.66 1.62 1.61 1.59 1.63 1.62 1.58 1.50 1.47 1.52 1.60 1.58 1.52 1.55 1.65 1.76 1.95 2.01 2.09 2.16 2.13 2.23 2.48 2.59 2.79 2.91 2.70 2.62 2.52 2.51 2.58 2.34 2.04
0.95 1.11 1.22 1.35 1.40 1.46 1.55 1.46 1.46 1.53 1.54 1.49 1.44 1.47 1.46 1.50 1.50 1.42 1.42 1.41 1.40 1.32 1.24 1.25 1.31 1.38 1.45 1.56 1.72 1.83 1.93 2.00 2.13 2.26 2.40 2.58 2.71 2.66 2.50 2.49 2.50 2.49 2.29
1.19 1.49 1.77 1.94 1.78 1.54 1.47 1.45 1.38 1.40 1.49 1.51 1.45 1.43 1.51 1.51 1.47 1.46 1.40 1.37 1.38 1.29 1.19 1.14 1.11 1.09 1.05 1.10 1.29 1.49 1.60 1.71 1.87 2.06 2.20 2.25 2.33 2.54 2.55 2.42 2.44 2.39 2.26
1.34 1.51 1.73 1.93 1.86 1.55 1.32 1.35 1.42 1.43 1.45 1.46 1.46 1.45 1.43 1.34 1.32 1.34 1.32 1.28 1.28 1.32 1.28 1.18 1.12 1.20 1.18 1.13 1.19 1.22 1.29 1.37 1.52 1.67 1.81 1.97 2.23 2.54 2.61 2.58 2.48 2.41 2.29
1.27 1.26 1.31 1.39 1.48 1.38 1.17 1.12 1.28 1.38 1.38 1.38 1.41 1.39 1.28 1.19 1.19 1.18 1.09 0.98 0.92 0.93 1.04 1.16 1.09 1.06 1.08 1.10 1.16 1.15 1.18 1.23 1.35 1.46 1.60 1.79 2.09 2.44 2.66 2.76 2.65 2.50 2.40
1.28 1.25 1.16 1.08 1.13 1.14 1.08 1.04 1.18 1.33 1.39 1.39 1.28 1.17 1.10 1.08 1.11 1.04 0.96 0.91 0.80 0.75 0.76 0.86 0.86 0.95 1.04 1.07 1.11 1.12 1.15 1.19 1.27 1.42 1.49 1.56 1.78 1.99 2.19 2.38 2.52 2.49 2.48
1.02 0.98 0.94 0.85 0.83 0.89 0.93 0.97 1.11 1.20 1.33 1.45 1.36 1.22 1.13 1.10 1.08 1.04 1.00 0.92 0.86 0.83 0.83 0.94 0.98 0.94 0.94 0.98 1.07 1.11 1.09 1.08 1.10 1.17 1.27 1.37 1.45 1.64 1.79 1.92 2.14 2.34 2.59
0.66 0.69 0.73 0.70 0.64 0.62 0.61 0.70 0.86 1.02 1.22 1.47 1.45 1.30 1.25 1.21 1.10 1.04 1.03 1.00 1.00 0.93 0.90 0.99 1.08 1.13 1.09 1.07 1.14 1.10 1.09 1.10 1.07 1.10 1.09 1.17 1.23 1.34 1.54 1.57 1.80 2.12 2.41
0.47 0.53 0.57 0.64 0.55 0.48 0.47 0.49 0.59 0.79 0.96 1.16 1.25 1.21 1.13 1.03 1.01 1.03 1.00 0.94 0.92 0.87 0.80 0.80 0.85 0.94 1.01 1.30 1.25 1.04 0.98 1.04 1.08 1.11 1.09 1.12 1.09 1.07 1.16 1.31 1.43 1.72 1.97
0.37 0.42 0.44 0.52 0.54 0.49 0.46 0.48 0.53 0.62 0.76 0.92 1.02 1.01 0.95 0.86 0.87 0.92 0.89 0.84 0.78 0.78 0.73 0.72 0.68 0.72 0.92 1.08 0.90 0.86 0.86 0.98 1.09 1.17 1.20 1.14 1.08 1.12 1.12 1.16 1.19 1.25 1.46
0.35 0.37 0.41 0.44 0.44 0.46 0.47 0.47 0.46 0.49 0.55 0.64 0.72 0.75 0.76 0.75 0.76 0.78 0.79 0.83 0.79 0.72 0.67 0.70 0.75 0.75 0.82 0.95 0.78 0.73 0.77 0.97 1.10 1.11 1.08 1.16 1.17 1.21 1.26 1.18 1.23 1.16 1.16
0.24 0.24 0.26 0.28 0.32 0.34 0.37 0.39 0.43 0.46 0.44 0.46 0.50 0.55 0.58 0.63 0.69 0.72 0.74 0.87 0.87 0.79 0.75 0.83 0.87 0.82 0.79 0.90 0.83 0.82 0.88 1.01 1.11 1.07 1.11 1.21 1.25 1.43 1.47 1.34 1.39 1.32 1.28
0.15 0.15 0.15 0.16 0.21 0.26 0.29 0.31 0.37 0.42 0.43 0.43 0.45 0.50 0.51 0.55 0.63 0.72 0.76 0.74 0.71 0.74 0.79 0.79 0.74 0.73 0.81 0.95 0.90 0.94 1.02 1.12 1.24 1.22 1.24 1.49 1.48 1.49 1.41 1.31 1.45 1.42 1.27
0.12 0.13 0.13 0.15 0.18 0.26 0.31 0.32 0.36 0.39 0.40 0.45 0.46 0.48 0.50 0.52 0.57 0.58 0.57 0.61 0.66 0.64 0.62 0.61 0.64 0.68 0.81 0.89 0.93 1.09 1.11 1.16 1.31 1.33 1.32 1.29 1.48 1.43 1.35 1.32 1.32 1.44 1.34
0.11 0.11 0.13 0.16 0.17 0.21 0.30 0.36 0.41 0.41 0.41 0.41 0.41 0.39 0.40 0.41 0.43 0.45 0.44 0.45 0.54 0.60 0.63 0.66 0.68 0.69 0.73 0.79 0.84 0.97 1.07 1.13 1.29 1.37 1.26 1.16 1.42 1.38 1.30 1.19 1.20 1.37 1.42
0.13 0.13 0.15 0.21 0.25 0.22 0.27 0.35 0.42 0.44 0.42 0.40 0.36 0.37 0.36 0.35 0.33 0.36 0.41 0.45 0.47 0.50 0.53 0.59 0.66 0.75 0.75 0.76 0.86 0.89 0.95 1.07 1.22 1.30 1.32 1.28 1.31 1.23 1.16 1.25 1.27 1.30 1.29
0.13 0.16 0.21 0.25 0.30 0.29 0.31 0.35 0.40 0.43 0.41 0.36 0.33 0.36 0.36 0.34 0.31 0.32 0.36 0.38 0.40 0.42 0.47 0.53 0.58 0.63 0.70 0.73 0.85 0.96 0.97 1.06 1.12 1.14 1.20 1.18 1.12 1.12 1.12 1.16 1.24 1.27 1.32
0.13 0.16 0.23 0.26 0.28 0.33 0.38 0.40 0.39 0.37 0.37 0.35 0.33 0.31 0.36 0.36 0.31 0.28 0.32 0.37 0.40 0.49 0.55 0.56 0.58 0.57 0.58 0.67 0.84 0.99 1.07 1.20 1.33 1.35 1.21 1.12 1.07 1.05 1.03 1.05 1.10 1.17 1.18
0.16 0.19 0.22 0.26 0.28 0.31 0.36 0.38 0.37 0.31 0.32 0.34 0.33 0.31 0.29 0.31 0.33 0.33 0.31 0.35 0.40 0.51 0.57 0.59 0.59 0.58 0.63 0.66 0.67 0.76 0.96 1.18 1.48 1.72 1.61 1.52 1.36 1.24 1.12 1.07 1.03 1.00 1.03